SPACEBEE-7

Last updated on Wed Sep 17 2025 00:03:49 GMT+0000 (Coordinated Universal Time)

1 43816U 18099BL 25259.48559882 .00050590 00000+0 11499-2 0 9995 2 43816 97.4856 331.9264 0006204 125.5567 234.6259 15.42827313372014
UTC large
Height (km)
Speed (km/s)
/
Latitude / Longitude
Inclination (degrees)
Orbital Period (minutes)
Azimuth
Elevation
Range (km)
Doppler Factor

Next 0 passes for location: London (51.5072 / 0.1276)

Sorry there are no passes over London.